Clarksburg, WV

7:25 PM EDT on July 25, 2017 (GMT -0400)
Benedum

Weather History for KCKB - March, 2013

Change the Weather History Date:

Saturday, March 30, 2013

  Actual Average Record
Temperature  
Mean Temperature 44 °F 47 °F  
Max Temperature 57 °F 58 °F 84 °F (1998)
Min Temperature 32 °F 36 °F 10 °F (1941)
Degree Days  
Heating Degree Days 20 18  
Month to date heating degree days 703  
Since 1 July heating degree days 4664  
Cooling Degree Days 0 0  
Month to date cooling degree days 0  
Year to date cooling degree days 0  
Moisture  
Dew Point 24 °F    
Average Humidity 46    
Maximum Humidity 79    
Minimum Humidity 24    
Precipitation  
Precipitation 0.00 in 0.16 in 0.71 in (1970)
Month to date precipitation 3.85  
Year to date precipitation 10.44  
Sea Level Pressure  
Sea Level Pressure 30.15 in    
Wind  
Wind Speed 2 mph (NNW)    
Max Wind Speed 9 mph    
Max Gust Speed -    
Visibility 10 miles    
Events      
T = Trace of Precipitation, MM = Missing Value Source: NWS Daily Summary

Daily Weather History Graph

Daily Weather History Graph

Search for Another Location

Airport or City:

Trip Planner

Search our weather history database for the weather conditions in past years. The results will help you decide how hot, cold, wet, or windy it might be!

Date:

Astronomy

Mar. 30, 2013 Rise Set
Actual Time 7:08 AM EDT 7:43 PM EDT
Civil Twilight 6:41 AM EDT 8:10 PM EDT
Nautical Twilight 6:09 AM EDT 8:41 PM EDT
Astronomical Twilight 5:36 AM EDT 9:14 PM EDT
Moon 11:46 PM EDT (3/30) 9:03 AM EDT (3/30)
Length of Visible Light 13h 28m
Length of Day
12h 34m
Waning Gibbous, 86% of the Moon is Illuminated
Mar 30
Waning Gibbous
Apr 3
Last Quarter
Apr 10
New
Apr 18
First Quarter
Apr 25
Full

Hourly Weather History & Observations

Time (EDT) Temp. Windchill Dew Point Humidity Pressure Visibility Wind Dir Wind Speed Gust Speed Precip Events Conditions
12:53 AM 41.0 °F - 25.0 °F 53% 30.20 in 10.0 mi Calm Calm - N/A   Overcast
1:53 AM 41.0 °F 39.0 °F 25.0 °F 53% 30.20 in 10.0 mi NE 3.5 mph - N/A   Mostly Cloudy
2:53 AM 39.9 °F 36.7 °F 25.0 °F 55% 30.20 in 10.0 mi NNE 4.6 mph - N/A   Overcast
3:53 AM 39.9 °F - 23.0 °F 51% 30.19 in 10.0 mi Calm Calm - N/A   Mostly Cloudy
4:53 AM 35.1 °F - 24.1 °F 64% 30.19 in 10.0 mi Calm Calm - N/A   Scattered Clouds
5:53 AM 33.1 °F - 25.0 °F 72% 30.20 in 10.0 mi Calm Calm - N/A   Overcast
6:53 AM 33.1 °F - 26.1 °F 75% 30.21 in 10.0 mi Calm Calm - N/A   Clear
7:53 AM 32.0 °F - 26.1 °F 79% 30.23 in 10.0 mi Calm Calm - N/A   Clear
8:53 AM 37.0 °F - 28.0 °F 70% 30.25 in 10.0 mi Calm Calm - N/A   Clear
9:53 AM 43.0 °F 40.3 °F 27.0 °F 53% 30.25 in 10.0 mi NNE 4.6 mph - N/A   Clear
10:53 AM 46.9 °F - 24.1 °F 41% 30.23 in 10.0 mi Calm Calm - N/A   Clear
11:53 AM 48.9 °F - 23.0 °F 36% 30.20 in 10.0 mi Calm Calm - N/A   Clear
12:53 PM 51.1 °F - 21.0 °F 31% 30.17 in 10.0 mi Variable 3.5 mph - N/A   Clear
1:53 PM 53.1 °F - 23.0 °F 31% 30.17 in 10.0 mi West 9.2 mph - N/A   Clear
2:53 PM 54.0 °F - 21.9 °F 29% 30.12 in 10.0 mi NNW 6.9 mph - N/A   Clear
3:53 PM 55.0 °F - 23.0 °F 29% 30.10 in 10.0 mi Variable 3.5 mph - N/A   Clear
4:53 PM 57.0 °F - 19.9 °F 24% 30.08 in 10.0 mi Calm Calm - N/A   Clear
5:53 PM 55.9 °F - 19.0 °F 24% 30.07 in 10.0 mi WNW 5.8 mph - N/A   Clear
6:53 PM 54.0 °F - 21.0 °F 28% 30.07 in 10.0 mi Calm Calm - N/A   Clear
7:53 PM 51.1 °F - 26.1 °F 38% 30.07 in 10.0 mi Calm Calm - N/A   Clear
8:53 PM 48.0 °F - 24.1 °F 39% 30.07 in 10.0 mi Calm Calm - N/A   Clear
9:53 PM 46.0 °F - 25.0 °F 44% 30.05 in 10.0 mi Calm Calm - N/A   Clear
10:53 PM 45.0 °F - 25.0 °F 46% 30.03 in 10.0 mi Calm Calm - N/A   Clear
11:53 PM 43.0 °F - 25.0 °F 49% 30.01 in 10.0 mi Calm Calm - N/A   Clear